• MPC Preparation (Info)

  • MPEC 2016-E55 : 2016 EM27

    The following Minor Planet Electronic Circular may be linked-to from your own Web pages, but must not otherwise be redistributed electronically.

    A form allowing access to any MPEC is at the bottom of this page.


    Read MPEC 2016-E54 Read MPEC 2016-E56


    M.P.E.C. 2016-E55                                Issued 2016 Mar. 6, 00:45 UT
    
         The Minor Planet Electronic Circulars contain information on unusual
             minor planets and routine data on comets.  They are published
        on behalf of Division F of the International Astronomical Union by the
              Minor Planet Center, Smithsonian Astrophysical Observatory,
                              Cambridge, MA 02138, U.S.A.
    
                 Prepared using the Tamkin Foundation Computer Network
    
                                  MPC@CFA.HARVARD.EDU
                URL https://www.minorplanetcenter.net/    ISSN 1523-6714
    
                                       2016 EM27
    
    Observations:
         K16E27M* C2016 03 03.40632 12 08 51.989+19 38 40.08         20.7 wLEE055F51
         K16E27M  C2016 03 03.42070 12 08 53.921+19 41 33.83         20.7 wLEE055F51
         K16E27M  C2016 03 03.43514 12 08 55.798+19 44 27.19         20.1 wLEE055F51
         K16E27M  C2016 03 03.94215 12 10 15.36 +21 24 39.1          19.8 VLEE055033
         K16E27M  C2016 03 03.94453 12 10 15.68 +21 25 06.8          19.5 VLEE055033
         K16E27M  C2016 03 03.94689 12 10 16.03 +21 25 35.6          19.7 VLEE055033
         K16E27M  C2016 03 04.01587 12 10 25.66 +21 39 19.0          20.7 VLEE055033
         K16E27M  C2016 03 04.18707 12 10 49.98 +22 13 03.2          20.6 VLEE055033
         K16E27M  C2016 03 04.18944 12 10 50.32 +22 13 31.5          20.7 VLEE055033
         K16E27M  C2016 03 04.19181 12 10 50.67 +22 13 58.9          19.9 VLEE055033
         K16E27M  C2016 03 04.37229 12 11 21.71 +22 50 04.9          19.9 RoEE055926
         K16E27M  C2016 03 04.37557 12 11 22.14 +22 50 43.5          20.0 RoEE055926
         K16E27M  C2016 03 04.37884 12 11 22.58 +22 51 21.5          20.1 RoEE055926
         K16E27M  C2016 03 04.40741 12 11 29.702+22 57 08.81         20.0 wLEE055F51
         K16E27M  C2016 03 04.41901 12 11 31.260+22 59 26.35         20.8 wLEE055F51
         K16E27M  C2016 03 04.43060 12 11 32.806+23 01 44.49         19.6 wLEE055F51
         K16E27M KC2016 03 06.00166 12 15 45.24 +28 05 43.6          19.3 RqEE055J95
         K16E27M KC2016 03 06.00559 12 15 45.84 +28 06 28.8          19.8 RqEE055J95
         K16E27M KC2016 03 06.00953 12 15 46.37 +28 07 14.5          20.2 RqEE055J95
    
    Observer details:
    033 Karl Schwarzschild Observatory, Tautenburg.  Observers B. Stecklum,
        C. Hoegner, C. Lauer.  Measurer B. Stecklum.  1.34-m f/3 Schmidt + CCD.
    926 Tenagra II Observatory.  Observers M. Schwartz, P. R. Holvorcem.  Measurer
        M. Schwartz.  0.81-m f/7 Ritchey-Chretien + CCD.
    F51 Pan-STARRS 1, Haleakala.  Observers B. Gibson, T. Goggia, N. Primak,
        A. Schultz, M. Willman.  Measurers K. Chambers, S. Chastel, L. Denneau,
        H. Flewelling, M. Huber, E. Lilly, E. Magnier, R. Wainscoat, C. Waters,
        R. Weryk.  1.8-m Ritchey-Chretien + CCD.
    J95 Great Shefford.  Observer P. Birtwhistle.  0.40-m f/6.0 Schmidt-Cassegrain
        + CCD.
    
    Orbital elements:
    2016 EM27                                                Earth MOID = 0.1299 AU
    Epoch 2016 Jan. 13.0 TT = JDT 2457400.5                 MPC
    M 282.38735              (2000.0)            P               Q
    n   0.75981690     Peri.   50.87313     -0.83327983     +0.53141196
    a   1.1894059      Node   159.73087     -0.53475981     -0.84472788
    e   0.0828960      Incl.   26.11074     +0.14027351     -0.06353058
    P   1.30           H   23.3           G   0.15           U   7
    Residuals in seconds of arc
    160303 F51  0.3-  0.6-    160304 033  0.1-  0.5+    160304 F51  0.0   0.4-
    160303 F51  0.1+  0.3+    160304 033  0.3-  0.9+    160304 F51  0.1+  0.1+
    160303 F51  0.1-  0.4+    160304 033  0.3-  0.4+    160306 J95  0.1-  0.3-
    160303 033  0.5+  0.3-    160304 926  0.0   0.3+    160306 J95  0.3+  0.1-
    160303 033  0.3+  1.0-    160304 926  0.1-  0.2+    160306 J95  0.3-  0.5+
    160303 033  0.5+  0.4-    160304 926  0.0   0.5-
    160304 033  0.3+  1.1+    160304 F51  0.0   0.0
    
    Ephemeris:
    2016 EM27                a,e,i = 1.19, 0.08, 26                  q = 1.0908
    Date    TT    R. A. (2000) Decl.     Delta      r     Elong.  Phase     V
    2016 02 05    11 11 06.8 -34 30 52   0.2635  1.1468   121.8    46.9    22.5
    ...
    2016 02 20    11 39 44.5 -15 55 30   0.1670  1.1294   145.0    30.2    21.0
    ...
    2016 02 28    11 57 46.8 +05 11 32   0.1375  1.1210   160.7    17.0    20.1
    ...
    2016 03 05    12 13 02.0 +24 53 07   0.1347  1.1152   154.8    22.2    20.3
    2016 03 06    12 15 43.8 +28 05 43   0.1360  1.1143   152.3    24.5    20.3
    2016 03 07    12 18 28.3 +31 12 56   0.1378  1.1134   149.6    26.8    20.4
    ...
    2016 03 13    12 35 53.5 +47 13 54   0.1572  1.1084   133.6    40.5    21.1
    ...
    2016 03 21    13 01 32.8 +60 52 43   0.1979  1.1025   117.8    53.0    21.9
    ...
    2016 04 05    13 51 41.1 +71 55 12   0.2872  1.0945   101.5    63.6    23.0
    
    A. U. Tomatic                (C) Copyright 2016 MPC           M.P.E.C. 2016-E55
    

    Read MPEC 2016-E54 Read MPEC 2016-E56


    MPEC number:

    Enter an MPEC number in one of the following forms:

    • 1997-B01 (the full form)
    • J97B01 (the packed version of the full form)
    • B01 (the abbreviated form)